Location: Newark
(41.3300°N, 14.0200°E)
Time: 15:03:18
(UTC+00:00)

Hubble Space Telescope - Visible Passes

Search period start: 27 January 2020 00:00
Search period end: 06 February 2020 00:00
Orbit: 536 x 540 km, 28.5° (Epoch: 26 January)

Date Brightness Start Highest point End Pass type
(mag) Time Alt. Az. Time Alt. Az. Time Alt. Az.
30 Jan 3.6 05:39:50 10° S 05:40:49 11° SSE 05:41:48 10° SSE visible
31 Jan 3.5 05:28:32 10° SSW 05:30:04 12° S 05:31:35 10° SSE visible
01 Feb 3.4 05:17:30 10° SSW 05:19:18 13° S 05:21:07 10° SSE visible
02 Feb 3.3 05:06:34 10° SSW 05:08:33 13° S 05:10:32 10° SSE visible
03 Feb 3.2 04:55:44 10° SSW 04:57:48 13° S 04:59:51 10° SSE visible
04 Feb 3.2 04:44:58 10° SSW 04:47:02 14° S 04:49:07 10° SSE visible
05 Feb 3.1 04:34:53 12° SSW 04:36:18 13° S 04:38:18 10° SSE visible
